Location: Lamoine Observatory
(44.4551°N, 68.3470°W)
Time: 07:29:29
(UTC-05:00)

Daily predictions for brighter satellites

Satellite Brightness Start Highest point End
(mag) Time Altitude Azimuth Time Altitude Azimuth Time Altitude Azimuth
Cosmos 1484 Rocket 3.4 17:36:49 10° S 17:40:45 65° W 17:44:39 10° NNW
CZ-4 R/B 4.0 17:38:00 10° SSW 17:41:36 28° W 17:45:15 10° NW
NOSS 2-2 (D) 4.4 17:37:49 10° WSW 17:41:50 50° NW 17:46:36 10° NNE
Meteor 1-20 Rocket 4.3 17:36:41 10° S 17:42:28 66° E 17:48:16 10° NNE
Meteor 1-28 Rocket 3.2 17:40:51 10° NNE 17:44:39 63° E 17:48:25 10° S
TSX-5 4.1 17:42:52 10° S 17:45:41 30° ESE 17:48:34 10° NE
Cosmos 1745 Rocket 4.1 17:40:59 10° S 17:47:19 86° W 17:53:37 10° N
FENGYUN 3A 4.3 17:43:00 10° SE 17:47:46 33° ENE 17:52:35 10° N
Cosmos 2151 Rocket 3.7 17:43:24 10° S 17:47:48 55° E 17:52:15 10° NNE
Okean 1 Rocket 4.3 17:45:41 10° SE 17:49:07 22° E 17:52:35 10° NE
Genesis I 4.4 17:45:58 10° NNW 17:49:19 25° NE 17:52:37 10° E
SJ-6B 3.3 17:45:46 10° SE 17:49:29 39° ENE 17:53:10 10° N
Tiangong 2 3.1 17:47:30 10° W 17:50:04 24° SSW 17:52:36 10° SSE
Gbstr 26 Del rocket 4.1 17:48:21 10° S 17:51:21 22° SE 17:54:17 10° E
Cosmos 2322 4.0 17:47:18 10° NNW 17:52:50 48° ENE 17:58:20 10° SE
Cosmos 1386 Rocket 4.4 17:47:03 10° S 17:53:08 81° E 17:59:11 10° N
Cosmos 1238 Rocket 2.9 17:54:47 10° NNE 17:57:30 30° ENE 18:00:09 10° SE
NOAA 12 4.1 17:53:52 10° SSE 17:59:10 75° ENE 18:04:31 10° N
Meteor 1-13 Rocket 4.3 17:56:19 10° N 18:01:45 54° ENE 18:07:15 10° SSE
GEOS 3 Rocket 4.4 18:00:00 10° ENE 18:04:37 31° ESE 18:09:15 10° S
SKYMED 2 4.2 18:01:57 10° N 18:06:14 61° WNW 18:10:30 10° SSW
Cosmos 1025 Rocket 4.2 18:03:38 10° NNE 18:07:08 23° ENE 18:10:38 10° SE
COSMOS 2428 3.3 18:02:46 10° NNW 18:08:00 35° NE 18:13:11 10° ESE
METEOR-M 4.1 18:04:30 10° SSE 18:09:51 89° ENE 18:15:14 10° NNW
Meteor 2-4 Rocket 4.0 18:05:53 10° N 18:11:08 40° ENE 18:16:13 10° SE
CZ-2D R/B 4.4 18:08:11 10° ESE 18:11:09 22° ENE 18:14:10 10° NNE
Cosmos 2237 Rocket 3.8 18:08:12 10° N 18:11:43 16° NE 18:14:01 13° ENE
Okean 1-7 Rocket 4.2 18:08:46 10° N 18:12:55 34° ENE 18:17:00 10° SE
Cosmos 1536 3.5 18:12:34 10° SSE 18:16:05 31° E 18:19:37 10° NNE
H-2A R/B 3.4 18:13:09 10° SE 18:16:27 32° ENE 18:19:50 10° N
Okean 1 4.1 18:15:02 10° NNW 18:19:01 57° W 18:23:00 10° S
Cosmos 1536 Rocket 4.0 18:17:17 10° NNW 18:21:45 69° W 18:26:11 10° S
Cosmos 1633 2.5 18:18:13 10° S 18:21:54 72° E 18:25:35 10° NNE
Cosmos 1741 Rocket 4.4 18:19:10 10° S 18:23:57 38° ESE 18:28:46 10° NE
Cosmos 1818 3.9 18:21:23 10° SW 18:26:49 71° NW 18:32:18 10° NNE
Cosmos 2360 Rocket 2.3 18:21:56 10° NNW 18:27:37 85° WSW 18:33:17 10° SSE
Cosmos 407 Rocket 4.3 18:22:54 10° SW 18:28:03 54° WNW 18:33:17 10° NNE
Cosmos 2219 Rocket 3.0 18:24:21 10° N 18:29:16 30° NE 18:31:49 21° E
Cosmos 2219 3.7 18:25:24 10° S 18:30:38 38° ESE 18:35:54 10° NE
Cosmos 676 Rocket 4.3 18:27:22 10° SSW 18:32:32 69° WNW 18:37:46 10° NNE
Cosmos 1570 Rocket 3.9 18:32:27 10° NNW 18:37:41 67° ENE 18:42:52 10° SSE
Meteor 1-11 Rocket 3.7 18:34:02 10° S 18:39:50 82° E 18:45:47 10° NNE
SL-16 R/B 4.0 18:42:07 10° N 18:44:59 14° NE 18:45:26 14° NE
Cosmos 1140 Rocket 3.5 18:42:27 10° SSW 18:47:35 82° WNW 18:52:47 10° NNE
Resurs 01 Rocket 1.6 18:45:25 10° SSE 18:49:49 87° WSW 18:54:16 10° NNW
Cosmos 1602 4.5 18:46:33 10° SSW 18:50:21 54° W 18:54:13 10° N
Cosmos 1300 Rocket 4.1 18:47:30 10° SSW 18:51:53 62° W 18:56:18 10° N
Cosmos 2327 Rocket 4.5 18:48:49 10° S 18:54:55 62° E 19:01:10 10° NNE
Spot 1 3.9 18:53:23 30° SE 18:55:12 60° ENE 18:59:18 10° N
Cosmos 614 Rocket 3.8 18:50:21 10° SSW 18:55:27 89° ESE 19:00:33 10° NNE
ALOS 2.9 18:53:17 10° S 18:57:52 57° W 19:02:29 10° NNW
Abrixas rocket 3.9 18:55:01 10° SSW 18:56:51 22° S 18:56:51 22° S
Cosmos 468 Rocket 4.4 18:53:29 10° N 18:58:25 40° ENE 18:59:15 37° E
Spot 2 Rocket 3.7 18:57:09 10° S 19:02:12 73° WSW 19:07:17 10° NNW
USA 229 DEB 3.7 18:55:49 10° NW 19:02:57 73° NE 19:07:02 28° SE
Cosmos 2333 Rocket 2.6 18:57:29 10° NNW 19:02:58 43° ENE 19:04:11 38° E
USA 229 3.7 18:55:55 10° NW 19:03:04 72° NE 19:07:06 29° SE
Cosmos 2208 Rocket 4.1 18:59:09 10° NNW 19:04:38 81° WSW 19:09:51 11° SSE
Helios 1A 2.8 19:04:17 37° SSE 19:05:51 75° ENE 19:10:02 10° N
Resurs 1-3 3.9 19:03:22 10° S 19:07:43 68° WSW 19:12:07 10° NNW
Cosmos 1980 4.1 19:05:33 10° NNW 19:10:52 40° NE 19:11:16 39° ENE
Cosmos 2074 Rocket 3.9 19:08:06 10° S 19:14:21 89° WNW 19:20:41 10° N
Cosmos 1850 Rocket 4.2 19:09:26 10° SSW 19:14:44 76° WNW 19:20:07 10° NNE
Cosmos 1814 Rocket 4.4 19:11:01 10° N 19:15:32 41° NE 19:15:32 41° NE
Helios 1B rocket 2.9 19:12:56 10° NNE 19:18:13 47° S 19:21:15 10° S
Cosmos 2184 Rocket 4.0 19:10:59 10° S 19:17:18 88° W 19:23:37 10° N
Envisat 3.0 19:18:30 54° ENE 19:18:32 54° ENE 19:23:29 10° N
ATLAS 2AS CENTAUR R/B 4.4 19:13:49 10° NNW 19:20:06 23° NNE 19:22:52 20° NE
Okean 2 3.3 19:17:32 10° N 19:21:44 87° WSW 19:22:00 78° S
USA 186 4.2 19:24:36 15° NNW 19:24:36 15° NNW 19:25:14 10° NNW
ERS-1 Rocket 4.1 19:25:25 30° NNE 19:25:25 30° NNE 19:28:28 10° N
Meteor 1-5 Rocket 4.4 19:21:36 10° SSW 19:27:34 79° W 19:33:31 10° N
Cosmos 1892 Rocket 3.7 19:25:33 10° N 19:29:15 64° N 19:29:15 64° N
NOSS 3-1 (C) 4.1 19:27:54 10° NNW 19:35:14 59° NE 19:36:56 50° E
Nadezhda 3 Rocket 3.8 19:29:10 10° N 19:35:20 73° E 19:36:37 56° SE
Gbstr 26 Del rocket 3.7 19:34:09 10° WSW 19:36:53 43° W 19:36:53 43° W
H-2A R/B 4.5 19:43:45 11° NNE 19:43:45 11° NNE 19:44:00 10° NNE
GEOS 3 Rocket 4.3 19:39:42 23° NNE 19:42:49 53° NW 19:47:55 10° WSW
Cosmos 2285 Rocket 4.4 19:37:56 10° NNW 19:44:18 64° WSW 19:47:50 27° S
Cosmos 405 Rocket 4.0 19:42:13 10° NNW 19:45:01 39° NW 19:45:01 39° NW
Cosmos 2154 Rocket 3.9 19:39:55 10° S 19:46:16 83° E 19:52:38 10° N
COSMOS 2428 3.9 19:47:03 10° NW 19:52:17 38° WSW 19:55:38 20° SSW
Cosmos 2237 Rocket 2.4 19:50:59 10° NNW 19:55:53 65° N 19:55:53 65° N
NOSS 0 Rocket 4.1 20:02:06 10° NNW 20:08:12 65° WSW 20:08:24 64° SW
Cosmos 2219 Rocket 3.0 20:08:04 10° NW 20:13:23 46° WSW 20:13:35 46° WSW
SL-16 R/B 3.7 20:24:34 10° NNW 20:27:20 29° NNW 20:27:20 29° NNW
Cosmos 2333 Rocket 3.8 20:42:03 10° NW 20:46:14 30° W 20:46:14 30° W
ATLAS 2AS CENTAUR R/B 4.0 21:05:05 10° NNW 21:10:18 39° N 21:10:18 39° N
